Weather History for KEPH - November, 2012

Change the Weather History Date:

Thursday, November 29, 2012

  Actual Average Record
Temperature  
Mean Temperature 36 °F 32 °F  
Max Temperature 40 °F 38 °F 60 °F (1995)
Min Temperature 32 °F 25 °F 3 °F (1985)
Degree Days  
Heating Degree Days 29 33  
Month to date heating degree days 736 804  
Since 1 July heating degree days 1231 1385  
Cooling Degree Days 0 0  
Month to date cooling degree days 0 0  
Year to date cooling degree days 837 772  
Moisture  
Dew Point 33 °F    
Average Humidity 91    
Maximum Humidity 96    
Minimum Humidity 85    
Precipitation  
Precipitation 0.03 in 0.04 in 0.19 in (1982)
Month to date precipitation 1.09 1.02  
Year to date precipitation 6.95 6.57  
Sea Level Pressure  
Sea Level Pressure 29.79 in    
Wind  
Wind Speed 5 mph (North)    
Max Wind Speed 14 mph    
Max Gust Speed 16 mph    
Visibility 6 miles    
Events Fog , Rain    
T = Trace of Precipitation, MM = Missing Value Source: NWS Daily Summary

Daily Weather History Graph

Daily Weather History Graph

Search for Another Location

Airport or City:

Trip Planner

Search our weather history database for the weather conditions in past years. The results will help you decide how hot, cold, wet, or windy it might be!

Date:

Astronomy

Nov. 29, 2012 Rise Set
Actual Time 7:22 AM PST 4:10 PM PST
Civil Twilight 6:47 AM PST 4:45 PM PST
Nautical Twilight 6:09 AM PST 5:23 PM PST
Astronomical Twilight 5:32 AM PST 6:00 PM PST
Moon 5:17 PM PST (11/29) 8:13 AM PST (11/29)
Length of Visible Light 9h 57m
Length of Day
8h 48m
Full, 99% of the Moon is Illuminated
Nov 29
Full
Dec 6
Last Quarter
Dec 13
New
Dec 19
First Quarter
Dec 28
Full

Hourly Weather History & Observations

Time (PST) Temp. Windchill Dew Point Humidity Pressure Visibility Wind Dir Wind Speed Gust Speed Precip Events Conditions
12:46 AM 33.8 °F - 32.0 °F 93% 29.85 in 2.5 mi Calm Calm - N/A   Overcast
12:53 AM 33.1 °F - 32.0 °F 96% 29.88 in 2.5 mi Calm Calm - N/A   Overcast
1:12 AM 33.8 °F - 32.0 °F 93% 29.85 in 1.8 mi Calm Calm - N/A   Overcast
1:20 AM 33.8 °F - 32.0 °F 93% 29.85 in 2.0 mi Calm Calm - N/A   Overcast
1:28 AM 33.8 °F 30.8 °F 33.8 °F 100% 29.85 in 1.5 mi East 3.5 mph - N/A   Overcast
1:38 AM 33.8 °F 30.8 °F 32.0 °F 93% 29.86 in 0.8 mi ESE 3.5 mph - N/A   Overcast
1:44 AM 33.8 °F 30.8 °F 32.0 °F 93% 29.86 in 2.0 mi ESE 3.5 mph - N/A   Overcast
1:53 AM 33.1 °F - 32.0 °F 96% 29.90 in 3.0 mi Calm Calm - N/A   Overcast
2:53 AM 33.1 °F - 30.9 °F 92% 29.91 in 4.0 mi Calm Calm - N/A   Overcast
3:53 AM 32.0 °F 27.5 °F 30.9 °F 96% 29.90 in 4.0 mi East 4.6 mph - N/A   Overcast
4:44 AM 32.0 °F 28.7 °F 30.2 °F 93% 29.87 in 2.5 mi ENE 3.5 mph - N/A   Overcast
4:53 AM 32.0 °F - 30.9 °F 96% 29.91 in 2.0 mi Calm Calm - N/A   Overcast
5:00 AM 32.0 °F - 30.2 °F 93% 29.86 in 1.5 mi Calm Calm - N/A   Overcast
5:53 AM 32.0 °F 28.7 °F 30.9 °F 96% 29.89 in 0.8 mi NE 3.5 mph - N/A   Overcast
6:53 AM 33.1 °F 30.0 °F 32.0 °F 96% 29.87 in 1.0 mi NNE 3.5 mph - N/A   Overcast
7:00 AM 33.8 °F 30.8 °F 32.0 °F 93% 29.83 in 0.8 mi North 3.5 mph - N/A   Overcast
7:53 AM 33.1 °F 27.7 °F 32.0 °F 96% 29.86 in 0.2 mi North 5.8 mph - N/A Fog Fog
8:10 AM 33.8 °F 30.8 °F 32.0 °F 93% 29.82 in 0.5 mi North 3.5 mph - N/A Fog Fog
8:18 AM 33.8 °F 27.7 °F 32.0 °F 93% 29.81 in 2.0 mi North 6.9 mph - N/A   Overcast
8:34 AM 33.8 °F 27.0 °F 32.0 °F 93% 29.80 in 6.0 mi North 8.1 mph - N/A   Mostly Cloudy
8:53 AM 33.1 °F 27.7 °F 32.0 °F 96% 29.85 in 8.0 mi North 5.8 mph - N/A   Overcast
9:08 AM 33.8 °F 26.4 °F 32.0 °F 93% 29.79 in 7.0 mi North 9.2 mph - N/A   Overcast
9:53 AM 34.0 °F 28.8 °F 32.0 °F 92% 29.83 in 10.0 mi North 5.8 mph - N/A   Overcast
10:53 AM 36.0 °F 29.0 °F 33.1 °F 89% 29.79 in 10.0 mi North 9.2 mph - 0.02 in Rain Light Rain
11:53 AM 37.9 °F 32.1 °F 35.1 °F 89% 29.78 in 10.0 mi NNW 8.1 mph - 0.00 in   Overcast
12:45 PM 37.4 °F 30.8 °F 33.8 °F 87% 29.72 in 10.0 mi NNW 9.2 mph - N/A   Overcast
12:53 PM 37.9 °F 32.1 °F 34.0 °F 86% 29.75 in 10.0 mi NNW 8.1 mph - N/A   Overcast
1:53 PM 37.9 °F 34.4 °F 34.0 °F 86% 29.72 in 10.0 mi NNW 4.6 mph - N/A   Overcast
2:53 PM 39.9 °F 36.7 °F 36.0 °F 86% 29.73 in 10.0 mi North 4.6 mph - 0.00 in Rain Light Rain
3:53 PM 39.0 °F 34.8 °F 36.0 °F 89% 29.71 in 10.0 mi North 5.8 mph - 0.00 in   Overcast
4:53 PM 37.9 °F - 35.1 °F 89% 29.71 in 10.0 mi Calm Calm - 0.00 in Rain Light Rain
5:04 PM 37.4 °F - 35.6 °F 93% 29.68 in 10.0 mi Calm Calm - 0.00 in   Overcast
5:14 PM 37.4 °F - 35.6 °F 93% 29.69 in 10.0 mi Calm Calm - 0.00 in   Overcast
5:40 PM 37.4 °F 32.8 °F 35.6 °F 93% 29.69 in 10.0 mi WSW 5.8 mph - 0.00 in   Overcast
5:53 PM 37.0 °F 33.3 °F 35.1 °F 93% 29.71 in 8.0 mi WSW 4.6 mph - 0.00 in Rain Light Rain
6:53 PM 37.9 °F 34.4 °F 36.0 °F 93% 29.68 in 10.0 mi North 4.6 mph - 0.01 in Rain Light Rain
7:53 PM 37.9 °F 33.5 °F 36.0 °F 93% 29.67 in 10.0 mi North 5.8 mph - 0.00 in Rain Light Rain
8:53 PM 37.9 °F 32.7 °F 35.1 °F 89% 29.66 in 10.0 mi NW 6.9 mph - 0.00 in   Overcast
9:53 PM 37.0 °F - 35.1 °F 93% 29.67 in 8.0 mi Calm Calm - N/A   Overcast
10:53 PM 37.0 °F 30.4 °F 34.0 °F 89% 29.63 in 10.0 mi NW 9.2 mph - N/A   Scattered Clouds
11:53 PM 37.9 °F 32.7 °F 34.0 °F 86% 29.62 in 10.0 mi WNW 6.9 mph - N/A   Overcast